[[{"header":{"parameterUnit":"m.s-1","parameterCategory":1,"la1":30.2991,"la2":30.254,"lo1":-89.0895,"lo2":-89.0444,"dy":0.0017,"dx":0.0017,"nx":28,"ny":28,"refTime":"2025-08-05T21:00:00:Z","depth":0,"parameterNumber":2,"parameterNumberName":"U-component_of_WINDS"},"data":[0,0,0,0,0,0,0,0,0,0,0,0,0,0,0,0,0,0,0,0,0,0,0,0,0,0,0,0,0,0,0,0,0,0,0,0,0,0,0,0,0,0,0,0,0,0,0,0,0,0,0,0,0,0,0,0,0,0,0.7288,0.7292,0,0.7761,0.7767,0.7772,0.8004,0.8004,0.8003,0.8003,0.8498,0.8511,0.8524,0,0,0,0,0,0,0,0,0,0,0,0,0,0.6587,0.6598,0.7287,0.7293,0.7299,0.776,0.7767,0.7774,0.8004,0.8004,0.8003,0.8003,0.8494,0.851,0.8526,0,0,0,0,0,0,0,0,0,0,0,0,0,0.6959,0.6602,0.7286,0.7469,0.749,0.7759,0.7767,0.7775,0.8004,0.8004,0.8003,0.8003,0.8489,0.8508,0.8528,0.8654,0,0,0.8589,0.8597,0,0,0,0,0,0,0,0,0.6938,0.6984,0.7436,0.7457,0.7481,0.7823,0.7702,0.807,0.8004,0.7809,0.8003,0.8003,0.8274,0.8312,0.8402,0.8677,0.8698,0.859,0.8603,0.8611,0.8617,0,0,0,0,0,0,0,0.6911,0.6965,0.7475,0.7442,0.747,0.7529,0.7582,0.7773,0.8037,0.7826,0.7844,0.7896,0.8287,0.8382,0.8415,0.8705,0.859,0.8608,0.862,0.8628,0.9104,0.9105,0,0,0,0,0,0,0.6855,0.6942,0.746,0.7489,0.7203,0.7542,0.7601,0.7714,0.8036,0.8084,0.7896,0.7905,0.8348,0.8391,0.8433,0.8601,0.8611,0.863,0.8641,0.9103,0.9104,0.9105,0,0,0,0,0,0,0.6839,0.6899,0.7441,0.7221,0.7294,0.7554,0.7679,0.7723,0.7818,0.8088,0.8137,0.7944,0.835,0.8405,0.8596,0.8621,0.8639,0.8657,0.9103,0.9104,0.9105,0.8936,0,0,0,0,0,0,0.6818,0.6892,0.6941,0.722,0.7305,0.7594,0.768,0.7732,0.7851,0.7868,0.8147,0.8193,0.8354,0.8565,0.8615,0.8649,0.8672,0.9102,0.9103,0.9104,0.894,0.8931,0.8923,0,0,0,0,0,0.6792,0.6878,0.6943,0.7004,0.7372,0.7595,0.7644,0.7824,0.7852,0.7905,0.8077,0.8184,0.8608,0.8582,0.8641,0.8681,0.9101,0.9103,0.9104,0.8944,0.8933,0.8923,0,0,0,0,0,0,0.6601,0.6918,0.6994,0.7172,0.7353,0.7633,0.7706,0.7807,0.7988,0.7996,0.8215,0.8276,0.8446,0.8583,0.8548,0.8818,0.8865,0.8878,0.8723,0.8714,0.8705,0.8671,0.8689,0,0,0,0,0,0.6578,0.673,0.7,0.7131,0.7218,0.7444,0.7549,0.7671,0.787,0.795,0.8137,0.8327,0.8504,0.8617,0.8794,0.8959,0.9023,0.9015,0.9006,0.8998,0.9008,0.9103,0.9103,0.911,0.911,0.911,0,0,0.6537,0.6728,0.6812,0.7097,0.7253,0.7406,0.7509,0.7668,0.7785,0.7975,0.8166,0.8308,0.8536,0.8712,0.88,0.8832,0.9019,0.9,0.8991,0.9007,0.9105,0.9104,0.9103,0.9111,0.9111,0.9111,0,0,0.6538,0.6697,0.6823,0.6974,0.7206,0.7355,0.7384,0.7647,0.7748,0.7941,0.8086,0.8228,0.8528,0.8683,0.8801,0.8852,0.8957,0.8903,0.886,0.895,0.8949,0.895,0.8968,0.8972,0.8912,0.8912,0.8911,0,0.6457,0.6692,0.6875,0.7025,0.7146,0.7318,0.7447,0.7587,0.7866,0.7946,0.7976,0.8352,0.8518,0.8733,0.8743,0.8834,0.8875,0.8875,0.8933,0.8936,0.894,0.8959,0.8966,0.8904,0.8905,0.8905,0.8906,0,0.658,0.674,0.6814,0.7073,0.7202,0.734,0.7546,0.7655,0.7763,0.7909,0.8102,0.8305,0.8525,0.8585,0.8695,0.8814,0.8826,0.8891,0.8944,0.8928,0.895,0.8959,0.8892,0.8895,0.8898,0.8899,0,0,0.6482,0.6834,0.6858,0.6976,0.7241,0.737,0.7514,0.7725,0.7814,0.7998,0.8126,0.8371,0.8432,0.8565,0.8694,0.8772,0.8798,0.8829,0.8838,0.8817,0.8941,0.8891,0.8897,0.8866,0.8869,0.8871,0.8922,0,0.6521,0.6785,0.6951,0.7151,0.73,0.7462,0.7588,0.7764,0.7903,0.8051,0.8206,0.8376,0.8442,0.8523,0.8608,0.8776,0.8826,0.8775,0.899,0.8995,0.893,0.8909,0.8859,0.8898,0.8932,0.8933,0.8935,0,0.6604,0.6778,0.6989,0.7232,0.7302,0.7412,0.7616,0.7755,0.7957,0.8052,0.8196,0.8324,0.8484,0.8519,0.8742,0.8703,0.88,0.8895,0.8901,0.8931,0.8966,0.894,0.8915,0.8921,0.895,0.8949,0.8948,0,0.6509,0.6798,0.6961,0.7057,0.7345,0.7418,0.7542,0.7744,0.7858,0.8037,0.8113,0.8308,0.8416,0.8565,0.8743,0.8752,0.8948,0.8998,0.9033,0.9028,0.9071,0.9066,0.9062,0.9128,0.9128,0.9128,0.9127,0,0.6537,0.6661,0.6922,0.7022,0.7165,0.7354,0.749,0.7628,0.7804,0.7936,0.8088,0.8209,0.8434,0.8582,0.8722,0.8885,0.8933,0.9015,0.9051,0.9003,0.8992,0.9072,0.9075,0.9129,0.9129,0.9129,0.9128,0,0.6459,0.6639,0.6827,0.7081,0.7148,0.7241,0.7461,0.7565,0.7707,0.7871,0.792,0.8147,0.8328,0.8517,0.8766,0.8859,0.9017,0.9067,0.8947,0.8968,0.8993,0.8988,0.9043,0.906,0.9109,0.9108,0.9108,0,0.6466,0.6564,0.6826,0.6922,0.704,0.7195,0.731,0.7498,0.7613,0.7847,0.7922,0.8114,0.8278,0.856,0.8748,0.8937,0.8993,0.8999,0.9023,0.897,0.8995,0.8987,0.8998,0.8992,0.899,0.8989,0.8988,0,0.646,0.6542,0.67,0.6888,0.702,0.7179,0.7343,0.7414,0.7635,0.7755,0.794,0.8066,0.8315,0.8503,0.8713,0.8844,0.8953,0.8977,0.8996,0.8949,0.8876,0.8917,0.8927,0.8977,0.8978,0.8979,0.8979,0.898,0.6427,0.6519,0.6716,0.6887,0.7028,0.7177,0.7285,0.7439,0.7595,0.781,0.7911,0.8096,0.8293,0.8585,0.8712,0.886,0.8892,0.8919,0.8926,0.893,0.8918,0.8848,0.8899,0.89,0.89,0.8901,0.8901,0,0.6428,0.6561,0.6715,0.6937,0.707,0.7154,0.7339,0.7446,0.7605,0.7778,0.7933,0.8143,0.8325,0.8523,0.8718,0.8798,0.8852,0.8842,0.884,0.8868,0.8878,0.8843,0.8795,0.8795,0.8795,0.8795,0.8795,0.8795,0.6445,0.6606,0.6709,0.6941,0.7075,0.7253,0.7351,0.7489,0.7627,0.7853,0.8003,0.8129,0.8313,0.852,0.869,0.8744,0.8809,0.8785,0.8853,0.886,0.8868,0.8876,0.8844,0.8797,0.8797,0.8832,0.8832,0.8832]},{"header":{"parameterUnit":"m.s-1","parameterCategory":1,"la1":30.2991,"la2":30.254,"lo1":-89.0895,"lo2":-89.0444,"dy":0.0017,"dx":0.0017,"nx":28,"ny":28,"refTime":"2025-08-05T21:00:00:Z","depth":0,"parameterNumber":3,"parameterNumberName":"V-component_of_WINDS"},"data":[0,0,0,0,0,0,0,0,0,0,0,0,0,0,0,0,0,0,0,0,0,0,0,0,0,0,0,0,0,0,0,0,0,0,0,0,0,0,0,0,0,0,0,0,0,0,0,0,0,0,0,0,0,0,0,0,0,0,-2.2773,-2.2773,0,-2.2739,-2.2739,-2.2738,-2.2807,-2.281,-2.2812,-2.2814,-2.2762,-2.2759,-2.2755,0,0,0,0,0,0,0,0,0,0,0,0,0,-2.2885,-2.2882,-2.2774,-2.2773,-2.2773,-2.2739,-2.2739,-2.2738,-2.2807,-2.281,-2.2813,-2.2815,-2.2763,-2.2759,-2.2755,0,0,0,0,0,0,0,0,0,0,0,0,0,-2.2841,-2.2881,-2.2774,-2.2804,-2.2806,-2.2739,-2.2738,-2.2738,-2.2806,-2.281,-2.2813,-2.2817,-2.2765,-2.276,-2.2754,-2.2652,0,0,-2.2738,-2.2736,0,0,0,0,0,0,0,0,-2.2844,-2.2837,-2.2799,-2.2801,-2.2804,-2.2782,-2.2759,-2.2708,-2.2806,-2.2806,-2.2814,-2.2818,-2.2765,-2.276,-2.2745,-2.265,-2.2647,-2.2738,-2.2735,-2.2732,-2.2731,0,0,0,0,0,0,0,-2.2847,-2.2839,-2.2759,-2.2799,-2.2801,-2.2814,-2.2811,-2.2749,-2.2765,-2.2806,-2.2811,-2.2807,-2.2766,-2.275,-2.2744,-2.2647,-2.2738,-2.2733,-2.273,-2.2728,-2.2462,-2.2458,0,0,0,0,0,0,-2.2848,-2.2841,-2.276,-2.2758,-2.2833,-2.2809,-2.2806,-2.2785,-2.2767,-2.2767,-2.2804,-2.281,-2.2757,-2.275,-2.2743,-2.2619,-2.2732,-2.2727,-2.2724,-2.2466,-2.2461,-2.2457,0,0,0,0,0,0,-2.285,-2.284,-2.2762,-2.2801,-2.2792,-2.2804,-2.2778,-2.2782,-2.2766,-2.2765,-2.2767,-2.2785,-2.276,-2.275,-2.2675,-2.2618,-2.2725,-2.272,-2.247,-2.2464,-2.2459,-2.2372,0,0,0,0,0,0,-2.2853,-2.2841,-2.2805,-2.28,-2.279,-2.2699,-2.2775,-2.2779,-2.2759,-2.2767,-2.2748,-2.2748,-2.2762,-2.2682,-2.2669,-2.2613,-2.2716,-2.2475,-2.2468,-2.2461,-2.238,-2.2364,-2.2351,0,0,0,0,0,-2.2857,-2.2779,-2.2803,-2.2793,-2.2747,-2.2695,-2.2689,-2.2711,-2.2754,-2.2716,-2.2715,-2.2749,-2.2628,-2.2674,-2.266,-2.2601,-2.2479,-2.247,-2.2462,-2.2387,-2.2367,-2.2351,0,0,0,0,0,0,-2.2771,-2.2779,-2.2805,-2.2725,-2.271,-2.2707,-2.266,-2.269,-2.2658,-2.2666,-2.269,-2.2685,-2.2603,-2.2595,-2.2647,-2.25,-2.256,-2.2548,-2.2508,-2.2489,-2.2475,-2.2476,-2.2712,0,0,0,0,0,-2.2745,-2.2707,-2.2714,-2.2642,-2.2633,-2.2648,-2.2626,-2.2646,-2.2628,-2.262,-2.2614,-2.2592,-2.2549,-2.2519,-2.248,-2.2381,-2.2375,-2.2333,-2.2319,-2.2307,-2.2294,-2.2238,-2.2218,-2.2428,-2.2428,-2.2429,0,0,-2.2686,-2.2685,-2.2659,-2.2625,-2.2615,-2.2571,-2.2642,-2.2592,-2.2558,-2.2611,-2.254,-2.2535,-2.2511,-2.2423,-2.2383,-2.2413,-2.2236,-2.2295,-2.2286,-2.228,-2.2227,-2.2207,-2.2189,-2.2423,-2.2424,-2.2425,0,0,-2.2556,-2.2554,-2.2493,-2.2483,-2.247,-2.248,-2.2466,-2.2459,-2.2459,-2.239,-2.2428,-2.2385,-2.2312,-2.2293,-2.2273,-2.2137,-2.2164,-2.2123,-2.2044,-2.1989,-2.1972,-2.1958,-2.1905,-2.1886,-2.2112,-2.2112,-2.2112,0,-2.2483,-2.2423,-2.2456,-2.2405,-2.2386,-2.2439,-2.2374,-2.2361,-2.2333,-2.2316,-2.2352,-2.226,-2.2248,-2.2154,-2.2122,-2.2106,-2.2085,-2.2123,-2.1973,-2.1959,-2.1945,-2.1895,-2.1876,-2.2107,-2.2107,-2.2108,-2.2108,0,-2.2332,-2.229,-2.2241,-2.2218,-2.2195,-2.2136,-2.2156,-2.2127,-2.2149,-2.2154,-2.208,-2.2068,-2.2026,-2.2006,-2.2025,-2.1914,-2.1933,-2.1971,-2.203,-2.192,-2.1873,-2.1854,-2.2099,-2.2101,-2.2103,-2.2104,0,0,-2.2144,-2.2143,-2.2124,-2.2113,-2.2103,-2.2068,-2.2011,-2.1975,-2.1948,-2.1927,-2.1876,-2.1813,-2.1848,-2.1826,-2.1843,-2.1795,-2.1683,-2.1838,-2.1837,-2.1806,-2.1556,-2.1524,-2.1502,-2.1704,-2.17,-2.1698,-2.1556,0,-2.2013,-2.192,-2.1948,-2.1851,-2.181,-2.186,-2.1809,-2.1794,-2.1798,-2.1759,-2.1761,-2.1715,-2.1767,-2.1754,-2.1709,-2.1706,-2.1632,-2.1718,-2.165,-2.1647,-2.165,-2.1478,-2.1445,-2.1313,-2.1539,-2.1536,-2.1533,0,-2.1847,-2.1824,-2.1725,-2.1721,-2.1705,-2.1659,-2.1628,-2.1593,-2.1575,-2.1581,-2.1557,-2.1584,-2.1521,-2.1586,-2.1498,-2.1555,-2.1529,-2.1523,-2.1519,-2.1509,-2.158,-2.1459,-2.1271,-2.1249,-2.1506,-2.1508,-2.151,0,-2.1714,-2.1659,-2.1593,-2.1582,-2.1577,-2.1543,-2.1538,-2.1526,-2.1502,-2.1473,-2.1457,-2.1419,-2.1397,-2.1365,-2.1378,-2.1425,-2.1285,-2.1352,-2.1283,-2.1282,-2.1247,-2.1248,-2.1047,-2.1238,-2.1239,-2.1239,-2.1239,0,-2.1562,-2.1498,-2.1533,-2.1491,-2.142,-2.1452,-2.1378,-2.1379,-2.1367,-2.1322,-2.1362,-2.1318,-2.1341,-2.1297,-2.1307,-2.1229,-2.122,-2.1218,-2.122,-2.1212,-2.1212,-2.1192,-2.1199,-2.1234,-2.1235,-2.1236,-2.1237,0,-2.1401,-2.1423,-2.1352,-2.1355,-2.1354,-2.13,-2.1299,-2.1258,-2.1266,-2.1209,-2.1197,-2.1207,-2.1157,-2.1169,-2.1113,-2.112,-2.1021,-2.1037,-2.1028,-2.103,-2.0959,-2.0964,-2.0734,-2.0704,-2.0919,-2.0917,-2.0915,0,-2.13,-2.1253,-2.1252,-2.1227,-2.1221,-2.1181,-2.1158,-2.1187,-2.1161,-2.1138,-2.1097,-2.1053,-2.1018,-2.0935,-2.0934,-2.0891,-2.0903,-2.0826,-2.0896,-2.0888,-2.0896,-2.0897,-2.089,-2.081,-2.0807,-2.0805,-2.0804,0,-2.1118,-2.1132,-2.1101,-2.1072,-2.1046,-2.1023,-2.1004,-2.098,-2.1008,-2.0975,-2.0928,-2.0901,-2.0847,-2.0799,-2.076,-2.0749,-2.0778,-2.0783,-2.0764,-2.0752,-2.0747,-2.0744,-2.0985,-2.0786,-2.0788,-2.0789,-2.079,-2.0791,-2.0981,-2.0941,-2.0934,-2.0897,-2.0887,-2.0868,-2.0829,-2.0834,-2.0797,-2.0759,-2.0777,-2.0721,-2.0702,-2.0653,-2.0638,-2.059,-2.0619,-2.0592,-2.0584,-2.0576,-2.0565,-2.0759,-2.0583,-2.0584,-2.0584,-2.0585,-2.0585,0,-2.0798,-2.0797,-2.0763,-2.0737,-2.0707,-2.0745,-2.0726,-2.0696,-2.0648,-2.0631,-2.0598,-2.0541,-2.0496,-2.0493,-2.0449,-2.0411,-2.0423,-2.0398,-2.0398,-2.0394,-2.0545,-2.0564,-2.0389,-2.0389,-2.0389,-2.0389,-2.0389,-2.0389,-2.0699,-2.0632,-2.0644,-2.057,-2.0569,-2.0519,-2.0504,-2.0485,-2.0472,-2.0409,-2.0373,-2.0374,-2.036,-2.0316,-2.0274,-2.0274,-2.0253,-2.0222,-2.0226,-2.0365,-2.0384,-2.0403,-2.0421,-2.0219,-2.0218,-2.0079,-2.0078,-2.0077]}]]